Location: Cannifist
(18.2333°N, 63.0167°W)
Time: 06:29:52
(UTC+00:00)

Envisat - Pass Details

Date: 18 June 2021
Orbit: 764 x 766 km, 98.2° (Epoch: 27 July)

Event Time Altitude Azimuth Distance (km) Brightness Sun altitude
Rises 08:47:54 0° 25° (NNE) 3,224 7.2 -11.1°
Reaches altitude 10° 08:50:24 10° 34° (NE) 2,296 6.6 -10.6°
Maximum altitude 08:54:59 35° 100° (E) 1,219 4.6 -9.7°
Drops below altitude 10° 08:59:33 10° 165° (SSE) 2,290 5.3 -8.7°
Sets 09:02:02 0° 174° (S) 3,214 6.0 -8.2°
